Regional Weather Roundup
Issued by NWS Upton, NY

Current Version | Previous Version | Text Only | Print | Product List | Glossary On
Versions: 1 2 3 4 5 6 7 8 9 10 11 12 13 14 15 16 17 18 19 20 21 22 23 24 25 26 27 28 29 30 31 32 33 34 35 36 37 38 39 40 41 42 43 44 45 46 47 48 49 50
000
ASUS41 KOKX 261804
RWROKX

REGIONAL WEATHER ROUNDUP
NATIONAL WEATHER SERVICE NEW YORK NY
200 PM EDT MON SEP 26 2016

NOTE: "FAIR" INDICATES FEW OR NO CLOUDS BELOW 12,000 FEET WITH NO
SIGNIFICANT WEATHER AND/OR OBSTRUCTIONS TO VISIBILITY.

NYZ071-072-176-178-NJZ106-104-261900-
NEW YORK CITY METRO AREA

CITY           SKY/WX    TMP DP  RH WIND       PRES   REMARKS
Central Park   PTSUNNY   71  49  45 VRB3      30.14F
LaGuardia APRT PTSUNNY   71  49  45 SE10G20   30.11F
Kennedy INTL   MOSUNNY   71  48  43 SW13      30.14F
Newark/Liberty PTSUNNY   72  49  44 S13       30.11F
Bronx Bot Gard   N/A     72  48  43 SE12      30.14R
Wall St Helipt PTCLDY    73  52  46 S9        30.13F
Teterboro      MOSUNNY   71  48  43 S8G18     30.10F
$$

NYZ177-179-078>081-261900-
LONG ISLAND NEW YORK

CITY           SKY/WX    TMP DP  RH WIND       PRES   REMARKS
Farmingdale    MOSUNNY   70  49  47 S14G24    30.14F
MacArthur/ISP  PTSUNNY   68  47  46 S10G18    30.14F
Shirley        MOSUNNY   68  47  46 S8G18     30.15F
Riverhead      NOT AVBL
Westhampton    MOSUNNY   67  43  41 S12G17    30.17F
Southampton      N/A     64  50  59 S9        30.13F
Bridgehampton    N/A     64  50  59 S2        30.03S
East Hampton   FAIR      65  46  51 SW5       30.17F
Montauk          N/A     65  47  52 VRB3      30.18F
$$

NYZ052-065-067-261900-
HUDSON VALLEY

CITY           SKY/WX    TMP DP  RH WIND       PRES   REMARKS
White Plains   PTSUNNY   68  46  45 S7        30.12F
Newburgh       MOSUNNY   70  50  49 SW14G23   30.12F
Montgomery     MOSUNNY   71  49  45 S14G22    30.09F
Poughkeepsie   SUNNY     68  46  45 S12G18    30.10F
Albany         PTSUNNY   67  43  41 S12       30.09F
$$

NJZ001-105-106-008-010-013-015-019>022-104-261900-
NEW JERSEY

CITY           SKY/WX    TMP DP  RH WIND       PRES   REMARKS
Newark/Liberty PTSUNNY   72  49  44 S13       30.11F
Teterboro      MOSUNNY   71  48  43 S8G18     30.10F
Caldwell       MOSUNNY   71  48  43 VRB7      30.11F
Morristown     PTSUNNY   72  50  46 SW6       30.11F
Somerville     PTSUNNY   73  50  44 VRB6      30.09F
Linden         NOT AVBL
Sussex         MOSUNNY   70  49  47 S10G18    30.10F
Abdover          N/A     69  50  50 VRB6      30.10F
Trenton        CLOUDY    71  49  45 S9        30.10F
Millville      PTSUNNY   71  52  50 S8        30.13F
Atlantic City  SUNNY     71  46  40 S9G20     30.13F
Wrightstown    PTSUNNY   73  49  42 S10       30.08F
Toms River     SUNNY     73  49  42 S13       30.13F
Belmar         MOSUNNY   70  49  47 S13G21    30.13F
$$

PAZ047>061-062-071-261900-
EASTERN PENNSYLVANIA

CITY           SKY/WX    TMP DP  RH WIND       PRES   REMARKS
Philadelphia   CLOUDY    72  49  44 S10       30.11F
Allentown      CLOUDY    69  52  54 S8G21     30.10F
Scranton       CLOUDY    65  48  54 S9        30.09F
$$

CTZ002-004>006-009-010-012-RIZ004-006-007-MAZ004-011-015-261900-
SOUTHERN NEW ENGLAND
 IN CT

CITY           SKY/WX    TMP DP  RH WIND       PRES   REMARKS
Bradley INTL   CLOUDY    66  40  38 S8        30.14F
Hartford       MOSUNNY   68  42  38 S12G20    30.13F
Danbury        MOSUNNY   67  47  48 S6G17     30.14F
Wtrbury/Oxford PTSUNNY   64  45  48 SW9G17    30.16F
Bridgeport     MOSUNNY   67  49  52 E9        30.14F
Meriden        MOSUNNY   68  46  45 S10       30.14F
New Haven      MOSUNNY   67  49  52 E8        30.15F
Chester        FAIR      64  46  52 S9G15     30.16F
Groton         SUNNY     65  47  52 SE6       30.16F
Wilimantic     SUNNY     70  40  33 S8        30.15F

 IN RI

CITY           SKY/WX    TMP DP  RH WIND       PRES   REMARKS
Providence     PTSUNNY   66  39  37 SE10      30.16F
Block Island   SUNNY     63  46  54 SE7       30.17F
Westerly       SUNNY     64  44  48 VRB7      30.17F
 IN MA

CITY           SKY/WX    TMP DP  RH WIND       PRES   REMARKS
Boston         PTSUNNY   63  41  44 SE8       30.14F
Worcester      SUNNY     62  37  39 SW10      30.15F
Westfield      MOSUNNY   66  40  38 SW8       30.13F
Provincetown   SUNNY     61  41  47 N6        30.17F
Nantucket      SUNNY     63  39  41 VRB3      30.17F
$$

ANZ330-335-338-340-345-350-353-355-261900-
COASTAL MARINE OBSERVATIONS


STATION/POSITION TIME  SKY/WX   TEMP    WIND        PRES    VSBY  WAVE
                                AIR SEA DIR/SP/G                  HT/PER
                 (UTC)          (F)     (DEG/KT/KT) (MB)    (MI)  (FT/S)
NY HARB ENTRANCE 1650            67 71  210/  8/ 12 1021.3          2/ 9
20S FIRE ISLAND  1650            65 69  170/ 12/ 14 1021.4          2/10
GREAT SOUTH BAY  1730            66 69  190/  8/ 12   N/A
23 SSW MONTAUK P 1650            62 69  160/  6/  6 1022.7          2/10
15 E BARNEGAT LI 1730               71                N/A           2/ 8
HUDSON CANYON    1650            66 69              1021.8          2/ 9
KINGS POINT      1724            67 72              1020.1
EXECUTION ROCKS  1745            69     170/ 10/ 14   N/A
CENTRAL LI SOUND 1730            64 72  140/ 10/ 14   N/A           1
EASTERN LI SOUND NOT AVBL
ROBBINS REEF     1724            67     150/ 14/ 16 1020.4
$$


>>>>>>>>>>>>>>>>>>>>>>>>>>>> KEY <<<<<<<<<<<<<<<<<<<<<<<<<<<
>                                                          <
>     SKY/WX - Sky Condition/Present Weather               <
>     TMP    - Temperature in Fahrenheit                   <
>     DP     - Dew Point in Fahrenheit                     <
>     RH     - Relative Humidity in Percent                <
>     WIND   - Direction (from) and Speed in MPH           <
>     PRES   - Mean Sea Level Pressure (inches of Hg)      <
>     WCI    - Wind Chill Index                            <
>     VSB    - VISIBILITY IN MILES                         <
>     HX     - HEAT INDEX                                  <
>     TC     - TEMPERATURE IN CELSIUS                      <
>     VRB    - VARIABLE WIND DIRECTION                     <
>                                                          <
>>>>>>>>>>>>>>>>>>>>>>>>>>>> KEY <<<<<<<<<<<<<<<<<<<<<<<<<<<



USA.gov is the U.S. government's official web portal to all federal, state and local government web resources and services.